www.pogodaiklimat.ru

ПОГОДА в Маскоги, OK

  • Прогноз погоды в Маскоги
  • Монитор погоды в Маскоги
  • Климат в Маскоги

АРХИВ ПОГОДЫ в Маскоги

Время (UTC), дата Ветер
(напр.,м/с)
 
Видим.   Явления Облачность Т
(С)
Тd
(С)
f
(%)
Тe
(С)
Тes
(С)
Комфортность

P
(гПа)

Po
(гПа)
Тmin
(С)
Tmax
(С)
R
(мм)
SD
(см)
06:06 25.05 СЗ  8
{15} 
5 км  гроза с сильным дождем, дымка  10/8 360 м
[средняя] 
+21.1  +19.4  90  +26  +26  душно    995.7         
06:08 25.05 З  11
{14} 
2 км  гроза с сильным дождем, дымка  10/8 300 м
[средняя] 
+20.6  +20.0  96  +24  +24  комфорт    995.7         
06:10 25.05 З  7
{13} 
2 км  гроза с сильным дождем, дымка  10/8 270 м
[средняя] 
+20.6  +20.0  96  +25  +25  комфорт    995.7         
06:13 25.05 З  4
{13} 
1 км  гроза с сильным дождем, дымка  10/8 270 м
[средняя] 
+20.6  +20.0  96  +25  +25  комфорт             
06:18 25.05     1 км  гроза, дымка  10/10 270 м  +20.0  +20.0  100  +23  +23  комфорт             
06:24 25.05 З  2 км  гроза с дождем, дымка  10/10 360 м  +20.0  +20.0  100  +24  +24  комфорт             
06:27 25.05 З  6 км  гроза со слабым дождем, дымка  10/10 300 м  +20.0  +20.0  100  +24  +24  комфорт             
06:42 25.05 СВ  16 км  гроза со слабым дождем  8/8 300 м  +20.6  +20.6  100  +26  +26  душно    994.7         
06:48 25.05 В  16 км  гроза  10/8 360 м
[средняя] 
+20.0  +20.0  100  +24  +24  комфорт    994.4         
06:53 25.05 В  16 км  гроза  8/8 300 м
[средняя] 
+20.0  +20.0  100  +24  +24  комфорт  1015.6  994.4         
07:00 25.05 В  16 км  гроза  10/8 150 м
[средняя] 
+20.0  +20.0  100  +24  +24  комфорт             
07:11 25.05 В  16 км    10/10 150 м  +20.0  +20.0  100  +24  +24  комфорт    994.4         
07:30 25.05 В  16 км    10/10 210 м  +20.0  +20.0  100  +24  +24  комфорт    994.0         
07:53 25.05 ЮВ  16 км    10/10 120 м  +20.0  +20.0  100  +23  +23  комфорт  1013.5  992.0      13.7   
08:53 25.05 Ю  16 км    8/2 90 м
[средняя] 
+20.0  +20.0  100  +24  +24  комфорт  1014.4  993.0         
09:53 25.05 Ю  16 км    ясно  +19.4  +19.4  100  +22  +22  комфорт  1015.1  993.7         
10:53 25.05 Ю  16 км    ясно  +19.4  +19.4  100  +22  +22  комфорт  1015.9  994.4  +19.4  +24.4  13.7   
11:53 25.05 Ю  16 км    ясно  +21.1  +21.1  100  +26  +27  душно  1016.4  995.0         
12:53 25.05 Ю  16 км    8/8 540 м  +23.9  +22.2  90  +31  +31  очень
душно 
1017.1  995.7         
13:53 25.05 Ю  5
{9} 
16 км    10/10 540 м  +24.4  +22.2  88  +32  +32  очень
душно 
1017.3  995.7         
14:40 25.05 Ю  7
{10} 
16 км    5/5 780 м  +25.6  +21.7  79  +33  +34  очень
душно 
  996.4         
14:53 25.05 ЮЗ  5
{9} 
16 км    8/8 750 м  +25.6  +21.7  79  +33  +34  очень
душно 
1018.2  996.7         
15:53 25.05 Ю  7
{9} 
16 км    5/5 840 м  +26.1  +21.1  74  +33  +35  очень
душно 
1018.4  997.0         
16:53 25.05 ЮЗ  16 км    5/5 1080 м  +27.8  +21.1  67  +35  +38  очень
душно 
1018.0  996.4  +19.4  +27.8     
17:53 25.05 Ю  16 км    5/5 1080 м  +27.8  +21.7  69  +36  +39  очень
душно 
1017.4  996.0         
18:53 25.05 Ю  6
{8} 
16 км    ясно  +28.9  +21.1  63  +36  +43  очень
душно 
1016.6  995.0         
19:53 25.05 Ю  4
{9} 
16 км    ясно  +29.4  +21.1  61  +37  +46  очень
душно 
1015.8  994.4         
20:53 25.05 ЮВ  6
{9} 
16 км    5/5 1260 м  +29.4  +21.1  61  +37  +39  очень
душно 
1015.5  994.0         
21:53 25.05 Ю  16 км    ясно  +28.9  +21.7  65  +37  +42  очень
душно 
1014.6  993.0         
22:53 25.05 Ю  16 км    ясно  +27.8  +21.7  69  +36  +39  очень
душно 
1013.8  992.4  +27.2  +29.4     
23:53 25.05 ЮВ  16 км    ясно  +26.1  +22.2  79  +34  +36  очень
душно 
1014.5  993.0         
00:53 26.05   16 км    ясно  +25.0  +21.7  82  +32  +32  очень
душно 
1015.2  993.7         
01:53 26.05   16 км    ясно  +23.9  +21.1  84  +30  +30  очень
душно 
1015.5  994.0         
02:53 26.05 ЮВ  16 км    ясно  +23.3  +21.7  91  +32  +32  очень
душно 
1016.5  995.0         
03:53 26.05 ЮВ  16 км    ясно  +22.8  +21.1  90  +30  +30  очень
душно 
1016.2  994.7         
04:53 26.05 Ю  16 км    ясно  +22.2  +21.7  97  +29  +29  очень
душно 
1017.1  995.7  +22.2  +27.8     
05:35 26.05 СЗ  11
{15} 
16 км  гроза  8/5 1290 м
[средняя] 
+22.8  +18.3  76  +28  +28  душно    997.7         
05:48 26.05 СЗ  8
{13} 
6 км  гроза, сильный дождь, дымка  10/8 810 м
[средняя] 
+20.0  +18.0  88  +22  +22  комфорт    998.0         
05:53 26.05 СЗ  4
{11} 
3 км  гроза, сильный дождь, дымка  10/10 810 м  +19.4  +18.9  97  +22  +22  комфорт  1019.0  997.3         
06:04 26.05   5 км  дождь, дымка  10/10 1410 м  +18.9  +18.9  100  +20  +20      997.3         
06:20 26.05 СЗ  10 км  гроза, слабый дождь, дымка  10/8 1800 м
[средняя] 
+18.9  +18.9  100  +21  +21  комфорт    998.0         
06:31 26.05 СЗ  4 км  сильный дождь, дымка  10/8 1500 м
[средняя] 
+18.3  +18.3  100  +19  +19      998.0         
06:40 26.05 З  5 км  гроза, дождь, дымка  10/8 1650 м
[средняя] 
+18.3  +18.3  100  +20  +20      998.0         
06:53 26.05 СЗ  3 км  гроза, сильный дождь, дымка  10/8 1380 м
[средняя] 
+18.3  +18.3  100  +20  +20    1019.2  997.7         
07:06 26.05 ЮВ  16 км  слабый дождь  10/5 1380 м
[средняя] 
+18.3  +18.3  100  +19  +19      996.4         
07:34 26.05 ЮВ  16 км    10/2 120 м
[средняя] 
+18.3  +18.3  100  +19  +19      995.7         
07:53 26.05 ЮВ  16 км    8/2 120 м
[средняя] 
+18.3  +18.3  100  +19  +19    1016.7  995.0      12.2   
08:53 26.05 Ю  16 км    ясно  +18.3  +18.3  100  +19  +19    1016.2  994.7         

 

Местоположение метеостанции Davis Field: широта 35.6569 долгота -95.3597 высота над уровнем моря 185 м.

В архиве по умолчанию представлена погода в Маскоги за последние 1-2 суток. Обновление информации о фактической погоде в базе происходит ежечасно! Архивные данные за месяц целиком и за предыдущие месяцы Вы можете получить, выбрав интересующий диапазон дат из раскрывающегося списка и нажав кнопку "Ввод!".

Внимание! Архив погоды МЕТАР в базе сайта хранится не более 60 дней. Нет смысла пытаться выбрать более раннюю дату.

Внимание! Время в таблицах - всемирное. Для получения местного времени необходимо прибавить поправку, которая в Маскоги равна -6 ч.

Ветер - указаны скорость ветра в м/с и направление, откуда дует ветер: С - северный, СВ - северо-восточный, В - восточный, ЮВ - юго-восточный, Ю - южный, ЮЗ - юго-западный, З - западный, СЗ - северо-западный.
Видимость - горизонтальная дальность видимости в метрах или километрах. При видимости от 1 до 10 км при отсутствии осадков обычно наблюдается дымка, при ухудшении видимости до 1 км и менее - туман. В сухую погоду видимость может ухудшаться дымом, пылью или мглою.
Атмосферные явления - указаны явления, наблюдавшиеся в указанный момент времени.
Облачность - указаны через наклонную черту верхняя и нижняя облачность в баллах и высота нижней границы облаков в метрах. Внимание: облачность, как и прочие метеорологические величины в США измеряются автоматическими метеостанциями. Указанные значения в баллах носят условный характер и показывают процент времени, в течение которого, в среднем, лазерный луч высотомера отражался от облаков обратно.
T - Температура воздуха - температура, измеренная на высоте 2 м над землей.
Td - Температура точки росы - температура, при понижении до которой содержащийся в воздухе водяной пар достигнет насыщения.
f - Относительная влажность воздуха - влажноcть воздуха, измеренная на высоте 2 м над землей.
Te - Эффективная температура - температура, которую ощущает одетый по сезону человек в тени. Характеристика душности погоды. При расчете учитывается влияние влажности воздуха и скорости ветра на теплоощущения человека.
Tes - Эффективная температура на солнце - температура, которую ощущает человек, с поправкой на солнечный нагрев. Характеристика знойности погоды. Зависит от высоты солнца над горизонтом, облачности и скорости ветра. Ночью, в пасмурную погоду, а также при ветре 12 м/с и более поправка равна нулю.
P - Атмосферное давление - приведенное к уровню моря атмосферное давление.
Po - Атмосферное давление - измеренное на уровне метеостанции атмосферное давление.
Tmin - Минимальная температура - минимум температуры воздуха на высоте 2 м над землей.
Tmax - Максимальная температура - максимум температуры воздуха на высоте 2 м над землей.
R - Количество осадков - Количество выпавших осадков за 3 или 6 часов, мм.
SD - Снежный покров - Высота снежного покрова, см.